Weather in Khomutnikov

Russia / Republic of Kalmykia     45°36′16″N   44°49′07″E
temp.,
°C
wind,
m/s
gust,
m/s
humid.,
%
clouds,
%
prec.,
mm/h
press.,
hPa
HPBL,
m
18 may, tue
tue1800:00+18sse1146100 0.0 100612
03:00+18wnw91379100 0.0 1007604
06:00+18wnw11168386 0.0 1006773
09:00+19wnw121469100 0.1 1008928
12:00+23wnw894983 0.0 10101279
15:00+25wnw67435 0.0 10101456
18:00+23nw554516 0.0 10101335
21:00+18nnw34642 0.0 101160
19 may, wed
wed1900:00+17nnw22705 0.0 101113
03:00+16ne237381 0.0 100915
06:00+17ene257286 0.0 1009139
09:00+22ene22485 0.0 1009709
12:00+27wsw34296 0.0 10091665
15:00+21wnw13155421 0.0 1012799
18:00+16nw81364100 0.1 1013531
21:00+15wnw3574100 0.5 1016109
20 may, thu
thu2000:00+14wnw45764 0.0 101683
03:00+14nw49755 0.0 1016149
06:00+15sw226936 0.0 1017116
09:00+20wsw234652 0.0 1017896
12:00+25sw45371 0.0 10161619
15:00+27ssw33335 0.0 10152199
18:00+26s44361 0.0 1015751
21:00+21se33420 0.0 101517
21 may, fri
fri2100:00+18s33500 0.0 101521
03:00+16ese33545 0.0 101519
06:00+18ese38542 0.0 1016234
09:00+25ese911348 0.0 10151089
12:00+29se1011260 0.0 10131575
15:00+28ese1112285 0.0 10131425
18:00+26ese1014333 0.0 10121051
21:00+21ese917423 0.0 1013631
22 may, sat
sat2200:00+20ese817500 0.0 1012541
03:00+19e716535 0.0 1011454
06:00+20ese9185488 0.0 1011600
09:00+28ese1217335 0.0 1009984
12:00+32ese13162432 0.0 10091397
15:00+32ese13172492 0.0 10081421
18:00+29ese101729100 0.0 10081137
21:00+24e71341100 0.0 1009440